West Point, VA

9:13 AM EDT on July 20, 2017 (GMT -0400)
West Point

Weather History for KFYJ - April, 2014

Change the Weather History Date:

Monday, April 7, 2014

  Actual Average (KJGG) Record (KJGG)
Temperature  
Mean Temperature 53 °F -  
Max Temperature 63 °F 66 °F 88 °F (1991)
Min Temperature 43 °F 39 °F 22 °F (1982)
Degree Days  
Heating Degree Days 12    
Growing Degree Days 3 (Base 50)    
Moisture  
Dew Point 49 °F    
Average Humidity 82    
Maximum Humidity 91    
Minimum Humidity 53    
Precipitation  
Precipitation 0.64 in - - ()
Sea Level Pressure  
Sea Level Pressure 29.94 in    
Wind  
Wind Speed 4 mph (ESE)    
Max Wind Speed 16 mph    
Max Gust Speed 23 mph    
Visibility 8 miles    
Events      
Averages and records for this station are not official NWS values.
T = Trace of Precipitation, MM = Missing Value Source: NWS Daily Summary

Daily Weather History Graph

Daily Weather History Graph

Search for Another Location

Airport or City:

Trip Planner

Search our weather history database for the weather conditions in past years. The results will help you decide how hot, cold, wet, or windy it might be!

Date:

Astronomy

Apr. 07, 2014 Rise Set
Actual Time 6:43 AM EDT 7:35 PM EDT
Civil Twilight 6:17 AM EDT 8:01 PM EDT
Nautical Twilight 5:45 AM EDT 8:33 PM EDT
Astronomical Twilight 5:13 AM EDT 9:05 PM EDT
Moon 12:40 PM EDT (4/7) 2:07 AM EDT (4/7)
Length of Visible Light 13h 44m
Length of Day
12h 51m
First Quarter, 53% of the Moon is Illuminated
Apr 7
First Quarter
Apr 15
Full
Apr 22
Last Quarter
Apr 29
New
May 6
First Quarter

Hourly Weather History & Observations

Time (EDT) Temp. Windchill Dew Point Humidity Pressure Visibility Wind Dir Wind Speed Gust Speed Precip Events Conditions
12:15 AM 43.5 °F - 35.2 °F 73% 30.21 in 10.0 mi Calm Calm - N/A   Clear
12:35 AM 43.9 °F - 35.4 °F 72% 30.20 in 10.0 mi Calm Calm - N/A   Scattered Clouds
1:15 AM 45.0 °F - 34.3 °F 66% 30.19 in 10.0 mi Calm Calm - N/A   Scattered Clouds
1:35 AM 45.0 °F - 35.6 °F 70% 30.17 in 10.0 mi Calm Calm - N/A   Scattered Clouds
1:55 AM 46.4 °F 45.2 °F 34.9 °F 64% 30.18 in 10.0 mi SE 3.5 mph - N/A   Mostly Cloudy
2:15 AM 46.9 °F - 33.8 °F 60% 30.17 in 10.0 mi East 3.5 mph - N/A   Overcast
2:35 AM 47.3 °F - 34.0 °F 60% 30.16 in 10.0 mi East 4.6 mph - N/A   Overcast
2:55 AM 47.5 °F - 34.2 °F 60% 30.15 in 10.0 mi East 3.5 mph - N/A   Overcast
3:15 AM 47.5 °F - 33.8 °F 59% 30.14 in 10.0 mi ENE 3.5 mph - N/A   Overcast
3:35 AM 47.7 °F - 32.9 °F 57% 30.13 in 10.0 mi East 6.9 mph - N/A   Overcast
3:55 AM 47.8 °F - 32.4 °F 55% 30.13 in 10.0 mi East 5.8 mph - N/A   Overcast
4:15 AM 48.2 °F - 32.0 °F 54% 30.12 in 10.0 mi East 5.8 mph - N/A   Overcast
4:35 AM 48.2 °F - 31.8 °F 53% 30.10 in 10.0 mi ENE 6.9 mph - N/A   Overcast
4:55 AM 48.4 °F - 31.8 °F 53% 30.10 in 10.0 mi ENE 3.5 mph - N/A   Overcast
5:15 AM 48.4 °F - 33.4 °F 56% 30.09 in 10.0 mi Calm Calm - N/A   Overcast
5:35 AM 48.2 °F - 35.4 °F 61% 30.08 in 7.0 mi Calm Calm - N/A   Mostly Cloudy
5:55 AM 46.8 °F - 40.3 °F 78% 30.09 in 10.0 mi Calm Calm - N/A   Scattered Clouds
6:15 AM 46.4 °F 45.2 °F 41.0 °F 81% 30.09 in 7.0 mi NNE 3.5 mph - N/A   Scattered Clouds
6:35 AM 46.0 °F - 40.5 °F 81% 30.09 in 5.0 mi Calm Calm - 0.02 in   Clear
6:55 AM 45.9 °F - 40.3 °F 81% 30.09 in 7.0 mi Calm Calm - 0.04 in   Clear
7:15 AM 45.9 °F 44.6 °F 41.4 °F 84% 30.10 in 7.0 mi ENE 3.5 mph - 0.01 in   Clear
7:35 AM 46.4 °F - 41.9 °F 84% 30.10 in 7.0 mi Calm Calm - 0.02 in   Clear
8:15 AM 47.3 °F - 43.5 °F 87% 30.10 in 5.0 mi ENE 4.6 mph - 0.01 in   Scattered Clouds
8:35 AM 47.7 °F - 44.1 °F 87% 30.09 in 4.0 mi ENE 3.5 mph - 0.05 in   Clear
8:55 AM 48.2 °F - 45.0 °F 89% 30.08 in 5.0 mi East 5.8 mph - 0.07 in   Clear
9:15 AM 49.1 °F - 46.4 °F 90% 30.06 in 5.0 mi ENE 5.8 mph - 0.01 in   Mostly Cloudy
9:35 AM 50.2 °F - 47.3 °F 90% 30.06 in 5.0 mi NE 4.6 mph - 0.03 in   Overcast
9:55 AM 51.1 °F - 48.4 °F 90% 30.05 in 5.0 mi ENE 6.9 mph - 0.05 in   Overcast
10:15 AM 52.2 °F - 49.5 °F 91% 30.05 in 5.0 mi East 8.1 mph - 0.01 in   Overcast
10:35 AM 53.6 °F - 50.9 °F 91% 30.04 in 5.0 mi East 6.9 mph - 0.04 in   Overcast
10:55 AM 54.9 °F - 52.3 °F 91% 30.04 in 4.0 mi ESE 4.6 mph - 0.07 in   Overcast
11:15 AM 56.5 °F - 53.8 °F 91% 30.03 in 4.0 mi ESE 9.2 mph - 0.04 in   Overcast
11:35 AM 57.4 °F - 54.7 °F 91% 30.00 in 4.0 mi ESE 13.8 mph 21.9 mph 0.07 in   Overcast
11:55 AM 57.4 °F - 54.5 °F 90% 29.99 in 4.0 mi ESE 8.1 mph - 0.11 in   Overcast
12:15 PM 57.6 °F - 54.7 °F 90% 29.97 in 4.0 mi East 10.4 mph - 0.05 in   Overcast
12:35 PM 57.6 °F - 54.5 °F 90% 29.94 in 5.0 mi East 16.1 mph 20.7 mph 0.10 in   Overcast
12:55 PM 57.7 °F - 54.7 °F 90% 29.92 in 5.0 mi East 12.7 mph 23.0 mph 0.14 in   Overcast
1:15 PM 58.1 °F - 55.0 °F 90% 29.91 in 4.0 mi ESE 10.4 mph 20.7 mph 0.04 in   Overcast
1:35 PM 58.1 °F - 55.0 °F 90% 29.89 in 5.0 mi East 11.5 mph 19.6 mph 0.09 in   Overcast
1:55 PM 58.5 °F - 55.4 °F 90% 29.87 in 5.0 mi ESE 13.8 mph 23.0 mph 0.12 in   Overcast
2:15 PM 58.6 °F - 55.4 °F 89% 29.86 in 10.0 mi ESE 9.2 mph - 0.01 in   Overcast
2:35 PM 59.2 °F - 56.3 °F 90% 29.83 in 7.0 mi East 13.8 mph - 0.02 in   Overcast
2:55 PM 60.1 °F - 57.0 °F 90% 29.82 in 10.0 mi SE 9.2 mph - 0.02 in   Overcast
3:15 PM 61.0 °F - 57.9 °F 90% 29.82 in 10.0 mi SSE 6.9 mph 20.7 mph N/A   Overcast
3:35 PM 60.8 °F - 57.4 °F 88% 29.83 in 10.0 mi SSE 4.6 mph - N/A   Overcast
3:55 PM 59.7 °F - 56.3 °F 88% 29.81 in 10.0 mi SSE 6.9 mph - N/A   Overcast
4:15 PM 60.1 °F - 57.2 °F 90% 29.79 in 10.0 mi SE 5.8 mph - N/A   Overcast
4:35 PM 60.8 °F - 57.9 °F 90% 29.78 in 10.0 mi SE 5.8 mph - N/A   Overcast
4:55 PM 61.0 °F - 58.1 °F 90% 29.77 in 10.0 mi SSE 4.6 mph - N/A   Overcast
5:15 PM 59.9 °F - 56.8 °F 90% 29.77 in 10.0 mi SSE 6.9 mph - N/A   Overcast
5:35 PM 59.7 °F - 56.8 °F 90% 29.78 in 10.0 mi SSE 8.1 mph - N/A   Mostly Cloudy
5:55 PM 60.3 °F - 57.4 °F 90% 29.76 in 10.0 mi SE 3.5 mph - N/A   Scattered Clouds
6:15 PM 61.9 °F - 59.0 °F 90% 29.76 in 10.0 mi SSW 4.6 mph - N/A   Clear
6:35 PM 62.6 °F - 59.0 °F 88% 29.73 in 10.0 mi SSE 5.8 mph - N/A   Mostly Cloudy
6:55 PM 63.3 °F - 59.4 °F 87% 29.73 in 10.0 mi South 5.8 mph - N/A   Scattered Clouds
7:15 PM 63.1 °F - 58.6 °F 85% 29.75 in 10.0 mi SSW 6.9 mph - N/A   Clear
7:35 PM 63.0 °F - 58.1 °F 84% 29.74 in 10.0 mi SSW 6.9 mph - N/A   Clear
7:55 PM 63.0 °F - 57.2 °F 81% 29.72 in 10.0 mi South 4.6 mph - N/A   Clear
8:15 PM 62.6 °F - 57.2 °F 82% 29.72 in 10.0 mi South 4.6 mph - N/A   Clear
8:35 PM 62.2 °F - 57.2 °F 84% 29.73 in 10.0 mi SSW 4.6 mph - N/A   Clear
8:55 PM 61.7 °F - 56.7 °F 84% 29.72 in 10.0 mi South 3.5 mph - N/A   Clear
9:15 PM 61.0 °F - 56.1 °F 84% 29.75 in 10.0 mi WSW 4.6 mph - N/A   Clear
9:35 PM 60.1 °F - 56.1 °F 87% 29.72 in 10.0 mi ESE 4.6 mph - N/A   Clear
9:55 PM 59.4 °F - 55.9 °F 88% 29.73 in 10.0 mi Calm Calm - N/A   Clear
10:15 PM 59.0 °F - 55.8 °F 89% 29.72 in 10.0 mi Calm Calm - N/A   Clear
10:35 PM 59.0 °F - 55.9 °F 90% 29.72 in 10.0 mi Calm Calm - N/A   Mostly Cloudy
10:55 PM 58.8 °F - 55.9 °F 90% 29.71 in 10.0 mi Calm Calm - N/A   Scattered Clouds
11:15 PM 57.9 °F - 55.2 °F 91% 29.70 in 5.0 mi Calm Calm - N/A   Clear
11:35 PM 57.6 °F - 55.0 °F 91% 29.70 in 5.0 mi Calm Calm - N/A   Clear
11:55 PM 57.7 °F - 55.2 °F 91% 29.68 in 5.0 mi Calm Calm - N/A   Clear